Regional Weather Roundup
Issued by NWS Raleigh/Durham, NC

Home | Current Version | Previous Version | Text Only | Print | Product List | Glossary On
Versions: 1 2 3 4 5 6 7 8 9 10 11 12 13 14 15 16 17 18 19 20 21 22 23 24 25 26 27 28 29 30 31 32 33 34 35 36 37 38 39 40 41 42 43 44 45 46 47 48 49 50
000
ASUS42 KRAH 211910
RWRRAH
NORTH CAROLINA WEATHER ROUNDUP
NATIONAL WEATHER SERVICE RALEIGH NC
300 PM EDT MON MAY 21 2018

NOTE: "FAIR" INDICATES FEW OR NO CLOUDS BELOW 12,000 FEET WITH NO
SIGNIFICANT WEATHER AND/OR OBSTRUCTIONS TO VISIBILITY.

NCZ001-053-055-056-065-067-212000-
WESTERN NORTH CAROLINA

CITY           SKY/WX    TMP DP  RH WIND       PRES   REMARKS
ASHEVILLE      FAIR      79  64  60 S7        30.17F
JEFFERSON      CLOUDY    64  59  83 CALM      30.26S
MORGANTON      FAIR      81  66  60 CALM      30.17F
HICKORY        FAIR      78  68  71 VRB3      30.14F
RUTHERFORDTON  FAIR      83  66  57 CALM      30.14F
MOUNT AIRY     NOT AVBL
BOONE          TSTM      63  62  99 CALM      30.27S
$$

NCZ021-022-025-041-071-084-088-212000-
CENTRAL NORTH CAROLINA

CITY           SKY/WX    TMP DP  RH WIND       PRES   REMARKS
CHARLOTTE      PTSUNNY   85  62  46 W6        30.13F
GREENSBORO     PTSUNNY   82  67  60 E3        30.12F
WINSTON-SALEM  FAIR      82  68  62 VRB3      30.13F
RALEIGH-DURHAM CLOUDY    83  69  62 CALM      30.11F THUNDER
FORT BRAGG     FAIR      84  65  53 SW6       30.11F
FAYETTEVILLE   FAIR      84  66  54 SW8       30.11F
BURLINGTON     FAIR      86  68  54 VRB5      30.10F
LAURINBURG     PTSUNNY   85  67  54 W8        30.12F
$$

NCZ011-015-027-028-043-044-047-080-103-212000-
NORTHEASTERN NORTH CAROLINA

CITY           SKY/WX    TMP DP  RH WIND       PRES   REMARKS
ROCKY MT-WILSO FAIR      84  69  60 SW8       30.10F
GREENVILLE     FAIR      82  72  69 SW6       30.12F
WASHINGTON     FAIR      83  71  64 CALM      30.11F
ELIZABETH CITY CLOUDY    73  72  96 NE12      30.14R
MANTEO         CLOUDY    75  71  85 E10       30.13S
CAPE HATTERAS  FAIR      79  72  79 SW12      30.13F
$$

NCZ078-087-090-091-093-098-101-212000-
SOUTHEASTERN NORTH CAROLINA

CITY           SKY/WX    TMP DP  RH WIND       PRES   REMARKS
LUMBERTON      FAIR      88  68  51 SW6       30.11F
GOLDSBORO      FAIR      83  69  62 SW8       30.10F
KINSTON        FAIR      82  70  65 S8        30.12F
KENANSVILLE    PTSUNNY   82  68  61 SW5       30.12F
NEW BERN       FAIR      85  71  63 W7        30.11F
CHERRY POINT   NOT AVBL
BEAUFORT       FAIR      77  71  82 SW12      30.13F
JACKSONVILLE   CLOUDY    82  72  71 S6        30.10F
WILMINGTON     FAIR      84  69  60 SW10G17   30.13F
$$




USA.gov is the U.S. government's official web portal to all federal, state and local government web resources and services.